Time,TemperatureF,DewpointF,PressureIn,WindDirection,WindDirectionDegrees,WindSpeedMPH,WindSpeedGustMPH,Humidity,HourlyPrecipIn,Conditions,Clouds,dailyrainin,SolarRadiationWatts/m^2,SoftwareType,DateUTC
2013-02-11 00:02:00,29.2,28.2,29.36,WNW,298,6.0,15.0,96,0.00,,---,0.00,0.00,VWS V14.00,2013-02-11 06:02:00,
2013-02-11 00:07:00,29.3,28.3,29.37,WNW,303,4.0,15.0,96,0.00,,---,0.00,0.00,VWS V14.00,2013-02-11 06:07:00,
2013-02-11 00:12:00,29.2,28.2,29.37,NNW,330,7.0,15.0,96,0.00,,---,0.00,0.00,VWS V14.00,2013-02-11 06:12:00,
2013-02-11 00:17:00,29.3,28.3,29.38,NW,304,4.0,15.0,96,0.00,,---,0.00,0.00,VWS V14.00,2013-02-11 06:17:00,
2013-02-11 00:22:00,29.2,28.2,29.38,WNW,295,3.0,15.0,96,0.00,,---,0.00,0.00,VWS V14.00,2013-02-11 06:22:00,
2013-02-11 00:27:00,29.2,28.2,29.39,WNW,299,4.0,15.0,96,0.00,,---,0.00,0.00,VWS V14.00,2013-02-11 06:27:00,
2013-02-11 00:32:00,29.2,28.0,29.39,NW,322,3.0,11.0,95,0.00,,---,0.00,0.00,VWS V14.00,2013-02-11 06:32:00,
2013-02-11 00:37:00,29.2,28.0,29.39,NW,317,3.0,11.0,95,0.00,,---,0.00,0.00,VWS V14.00,2013-02-11 06:37:00,
2013-02-11 00:42:00,29.1,27.9,29.39,NNW,327,7.0,11.0,95,0.00,,---,0.00,0.00,VWS V14.00,2013-02-11 06:42:00,
2013-02-11 00:47:00,29.0,27.5,29.40,NW,305,9.0,11.0,94,0.00,,---,0.00,0.00,VWS V14.00,2013-02-11 06:47:00,
2013-02-11 00:52:00,28.9,27.4,29.40,WNW,302,3.0,11.0,94,0.00,,---,0.00,0.00,VWS V14.00,2013-02-11 06:52:00,
2013-02-11 00:57:00,28.9,27.4,29.40,WNW,291,3.0,15.0,94,0.00,,---,0.00,0.00,VWS V14.00,2013-02-11 06:57:00,
2013-02-11 01:02:00,28.8,27.3,29.40,WNW,297,10.0,15.0,94,0.00,,---,0.00,0.00,VWS V14.00,2013-02-11 07:02:00,
2013-02-11 01:07:00,28.8,27.0,29.41,NW,305,10.0,15.0,93,0.00,,---,0.00,0.00,VWS V14.00,2013-02-11 07:07:00,
2013-02-11 01:12:00,28.7,26.9,29.41,NW,317,3.0,15.0,93,0.00,,---,0.00,0.00,VWS V14.00,2013-02-11 07:12:00,
2013-02-11 01:17:00,28.6,26.8,29.41,NW,304,4.0,15.0,93,0.00,,---,0.00,0.00,VWS V14.00,2013-02-11 07:17:00,
2013-02-11 01:22:00,28.6,26.8,29.42,NW,321,7.0,16.0,93,0.00,,---,0.00,0.00,VWS V14.00,2013-02-11 07:22:00,
2013-02-11 01:27:00,28.6,26.8,29.42,WNW,298,7.0,16.0,93,0.00,,---,0.00,0.00,VWS V14.00,2013-02-11 07:27:00,
2013-02-11 01:32:00,28.6,26.8,29.42,NW,309,5.0,16.0,93,0.00,,---,0.00,0.00,VWS V14.00,2013-02-11 07:32:00,
2013-02-11 01:37:00,28.6,26.6,29.43,NW,310,7.0,18.0,92,0.00,,---,0.00,0.00,VWS V14.00,2013-02-11 07:37:00,
2013-02-11 01:42:00,28.6,26.6,29.43,NW,318,8.0,18.0,92,0.00,,---,0.00,0.00,VWS V14.00,2013-02-11 07:42:00,
2013-02-11 01:47:00,28.6,26.6,29.43,NW,306,10.0,18.0,92,0.00,,---,0.00,0.00,VWS V14.00,2013-02-11 07:47:00,
2013-02-11 01:53:00,28.6,26.6,29.44,NW,315,18.0,18.0,92,0.00,,---,0.00,0.00,VWS V14.00,2013-02-11 07:53:00,
2013-02-11 01:58:00,28.7,26.7,29.44,NW,305,10.0,11.0,92,0.00,,---,0.00,0.00,VWS V14.00,2013-02-11 07:58:00,
2013-02-11 02:03:00,28.7,26.7,29.45,WNW,290,6.0,21.0,92,0.00,,---,0.00,0.00,VWS V14.00,2013-02-11 08:03:00,
2013-02-11 02:08:00,28.7,26.7,29.45,NW,318,13.0,21.0,92,0.00,,---,0.00,0.00,VWS V14.00,2013-02-11 08:08:00,
2013-02-11 02:13:00,28.7,26.4,29.45,NW,311,11.0,21.0,91,0.00,,---,0.00,0.00,VWS V14.00,2013-02-11 08:13:00,
2013-02-11 02:18:00,28.7,26.4,29.45,WNW,303,14.0,21.0,91,0.00,,---,0.00,0.00,VWS V14.00,2013-02-11 08:18:00,
2013-02-11 02:23:00,28.7,26.4,29.45,NW,313,6.0,21.0,91,0.00,,---,0.00,0.00,VWS V14.00,2013-02-11 08:23:00,
2013-02-11 02:28:00,28.7,26.4,29.45,NW,313,6.0,7.0,91,0.00,,---,0.00,0.00,VWS V14.00,2013-02-11 08:28:00,
2013-02-11 02:33:00,28.7,26.4,29.46,WNW,295,9.0,19.0,91,0.00,,---,0.00,0.00,VWS V14.00,2013-02-11 08:33:00,
2013-02-11 02:38:00,28.7,26.4,29.47,WNW,296,5.0,19.0,91,0.00,,---,0.00,0.00,VWS V14.00,2013-02-11 08:38:00,
2013-02-11 02:43:00,28.7,26.1,29.47,NNW,335,3.0,19.0,90,0.00,,---,0.00,0.00,VWS V14.00,2013-02-11 08:43:00,
2013-02-11 02:48:00,28.7,26.1,29.48,WNW,300,12.0,19.0,90,0.00,,---,0.00,0.00,VWS V14.00,2013-02-11 08:48:00,
2013-02-11 02:53:00,28.6,26.0,29.48,NW,309,9.0,19.0,90,0.00,,---,0.00,0.00,VWS V14.00,2013-02-11 08:53:00,
2013-02-11 02:58:00,28.5,26.0,29.49,NW,310,4.0,15.0,90,0.00,,---,0.00,0.00,VWS V14.00,2013-02-11 08:58:00,
2013-02-11 03:03:00,28.5,26.0,29.48,WNW,296,13.0,16.0,90,0.00,,---,0.00,0.00,VWS V14.00,2013-02-11 09:03:00,
2013-02-11 03:08:00,28.5,26.0,29.49,WNW,293,11.0,19.0,90,0.00,,---,0.00,0.00,VWS V14.00,2013-02-11 09:08:00,
2013-02-11 03:13:00,28.4,25.9,29.49,WNW,303,19.0,21.0,90,0.00,,---,0.00,0.00,VWS V14.00,2013-02-11 09:13:00,
2013-02-11 03:19:00,28.4,25.9,29.50,WNW,293,7.0,21.0,90,0.00,,---,0.00,0.00,VWS V14.00,2013-02-11 09:19:00,
2013-02-11 03:24:00,28.3,25.8,29.50,NNW,330,6.0,21.0,90,0.00,,---,0.00,0.00,VWS V14.00,2013-02-11 09:24:00,
2013-02-11 03:29:00,28.2,25.9,29.50,NNW,343,10.0,12.0,91,0.00,,---,0.00,0.00,VWS V14.00,2013-02-11 09:29:00,
2013-02-11 03:34:00,28.0,25.7,29.51,NW,321,9.0,16.0,91,0.00,,---,0.00,0.00,VWS V14.00,2013-02-11 09:34:00,
2013-02-11 03:39:00,28.0,25.7,29.51,WNW,294,16.0,16.0,91,0.00,,---,0.00,0.00,VWS V14.00,2013-02-11 09:39:00,
2013-02-11 03:44:00,28.0,25.5,29.51,NW,310,6.0,19.0,90,0.00,,---,0.00,0.00,VWS V14.00,2013-02-11 09:44:00,
2013-02-11 03:49:00,28.0,25.5,29.51,NW,325,8.0,19.0,90,0.00,,---,0.00,0.00,VWS V14.00,2013-02-11 09:49:00,
2013-02-11 03:54:00,28.0,25.5,29.51,NNW,335,18.0,19.0,90,0.00,,---,0.00,0.00,VWS V14.00,2013-02-11 09:54:00,
2013-02-11 03:59:00,28.0,25.2,29.52,NW,318,6.0,22.0,89,0.00,,---,0.00,0.00,VWS V14.00,2013-02-11 09:59:00,
2013-02-11 04:04:00,28.0,25.2,29.52,North,355,6.0,22.0,89,0.00,,---,0.00,0.00,VWS V14.00,2013-02-11 10:04:00,
2013-02-11 04:09:00,28.0,25.2,29.53,WNW,302,6.0,22.0,89,0.00,,---,0.00,0.00,VWS V14.00,2013-02-11 10:09:00,
2013-02-11 04:14:00,27.9,25.1,29.54,NW,313,6.0,22.0,89,0.00,,---,0.00,0.00,VWS V14.00,2013-02-11 10:14:00,
2013-02-11 04:19:00,27.9,25.1,29.54,WNW,301,13.0,22.0,89,0.00,,---,0.00,0.00,VWS V14.00,2013-02-11 10:19:00,
2013-02-11 04:25:00,27.9,24.8,29.54,WNW,302,12.0,22.0,88,0.00,,---,0.00,0.00,VWS V14.00,2013-02-11 10:25:00,
2013-02-11 04:30:00,27.9,24.8,29.55,NW,310,10.0,14.0,88,0.00,,---,0.00,0.00,VWS V14.00,2013-02-11 10:30:00,
2013-02-11 04:35:00,27.8,24.7,29.55,WNW,289,4.0,18.0,88,0.00,,---,0.00,0.00,VWS V14.00,2013-02-11 10:35:00,
2013-02-11 04:40:00,27.7,24.9,29.55,NNW,333,5.0,20.0,89,0.00,,---,0.00,0.00,VWS V14.00,2013-02-11 10:40:00,
2013-02-11 04:45:00,27.5,24.7,29.56,NNW,333,12.0,20.0,89,0.00,,---,0.00,0.00,VWS V14.00,2013-02-11 10:45:00,
2013-02-11 04:50:00,27.5,24.4,29.56,NW,317,12.0,20.0,88,0.00,,---,0.00,0.00,VWS V14.00,2013-02-11 10:50:00,
2013-02-11 04:55:00,27.4,24.3,29.57,NW,319,9.0,26.0,88,0.00,,---,0.00,0.00,VWS V14.00,2013-02-11 10:55:00,
2013-02-11 05:00:00,27.3,24.2,29.57,West,280,6.0,16.0,88,0.00,,---,0.00,0.00,VWS V14.00,2013-02-11 11:00:00,
2013-02-11 05:05:00,27.2,24.1,29.57,WNW,290,11.0,21.0,88,0.00,,---,0.00,0.00,VWS V14.00,2013-02-11 11:05:00,
2013-02-11 05:10:00,27.1,24.0,29.58,NW,309,6.0,21.0,88,0.00,,---,0.00,0.00,VWS V14.00,2013-02-11 11:10:00,
2013-02-11 05:15:00,27.0,23.9,29.58,NW,307,3.0,21.0,88,0.00,,---,0.00,0.00,VWS V14.00,2013-02-11 11:15:00,
2013-02-11 05:20:00,26.9,23.6,29.58,NW,314,10.0,21.0,87,0.00,,---,0.00,0.00,VWS V14.00,2013-02-11 11:20:00,
2013-02-11 05:25:00,26.8,23.5,29.59,NW,317,11.0,21.0,87,0.00,,---,0.00,0.00,VWS V14.00,2013-02-11 11:25:00,
2013-02-11 05:30:00,26.7,23.1,29.59,NW,313,16.0,18.0,86,0.00,,---,0.00,0.00,VWS V14.00,2013-02-11 11:30:00,
2013-02-11 05:35:00,26.6,23.3,29.60,NNW,329,12.0,20.0,87,0.00,,---,0.00,0.00,VWS V14.00,2013-02-11 11:35:00,
2013-02-11 05:40:00,26.4,23.1,29.60,WNW,286,9.0,20.0,87,0.00,,---,0.00,0.00,VWS V14.00,2013-02-11 11:40:00,
2013-02-11 05:46:00,26.2,22.9,29.61,West,263,5.0,20.0,87,0.00,,---,0.00,0.00,VWS V14.00,2013-02-11 11:46:00,
2013-02-11 05:51:00,26.2,22.9,29.62,NNW,327,5.0,20.0,87,0.00,,---,0.00,0.00,VWS V14.00,2013-02-11 11:51:00,
2013-02-11 05:56:00,26.1,22.8,29.62,WNW,301,6.0,20.0,87,0.00,,---,0.00,0.00,VWS V14.00,2013-02-11 11:56:00,
2013-02-11 06:01:00,25.9,22.8,29.62,NW,326,17.0,17.0,88,0.00,,---,0.00,0.00,VWS V14.00,2013-02-11 12:01:00,
2013-02-11 06:06:00,25.9,22.6,29.62,WNW,301,7.0,17.0,87,0.00,,---,0.00,0.00,VWS V14.00,2013-02-11 12:06:00,
2013-02-11 06:11:00,25.8,22.2,29.63,NW,311,10.0,17.0,86,0.00,,---,0.00,0.00,VWS V14.00,2013-02-11 12:11:00,
2013-02-11 06:16:00,25.8,22.2,29.63,NW,323,4.0,17.0,86,0.00,,---,0.00,0.00,VWS V14.00,2013-02-11 12:16:00,
2013-02-11 06:21:00,25.7,21.8,29.64,NW,319,9.0,17.0,85,0.00,,---,0.00,0.00,VWS V14.00,2013-02-11 12:21:00,
2013-02-11 06:26:00,25.6,21.7,29.64,NW,311,14.0,18.0,85,0.00,,---,0.00,0.00,VWS V14.00,2013-02-11 12:26:00,
2013-02-11 06:31:00,25.4,22.1,29.65,WNW,288,10.0,16.0,87,0.00,,---,0.00,0.00,VWS V14.00,2013-02-11 12:31:00,
2013-02-11 06:36:00,25.1,21.8,29.65,NNW,337,2.0,19.0,87,0.00,,---,0.00,0.00,VWS V14.00,2013-02-11 12:36:00,
2013-02-11 06:41:00,25.1,21.8,29.65,NW,314,11.0,19.0,87,0.00,,---,0.00,0.00,VWS V14.00,2013-02-11 12:41:00,
2013-02-11 06:46:00,25.1,21.5,29.66,WNW,300,10.0,19.0,86,0.00,,---,0.00,0.00,VWS V14.00,2013-02-11 12:46:00,
2013-02-11 06:51:00,25.1,21.5,29.66,WNW,288,8.0,19.0,86,0.00,,---,0.00,0.00,VWS V14.00,2013-02-11 12:51:00,
2013-02-11 06:56:00,25.0,21.4,29.67,WNW,283,7.0,19.0,86,0.00,,---,0.00,0.00,VWS V14.00,2013-02-11 12:56:00,
2013-02-11 07:01:00,24.9,21.3,29.68,WNW,302,11.0,21.0,86,0.00,,---,0.00,0.00,VWS V14.00,2013-02-11 13:01:00,
2013-02-11 07:06:00,24.9,21.0,29.68,NNW,327,5.0,21.0,85,0.00,,---,0.00,0.00,VWS V14.00,2013-02-11 13:06:00,
2013-02-11 07:11:00,24.8,21.2,29.68,WNW,285,11.0,21.0,86,0.00,,---,0.00,0.00,VWS V14.00,2013-02-11 13:11:00,
2013-02-11 07:16:00,24.6,21.3,29.69,NW,313,10.0,21.0,87,0.00,,---,0.00,0.00,VWS V14.00,2013-02-11 13:16:00,
2013-02-11 07:21:00,24.4,21.4,29.69,WNW,293,6.0,21.0,88,0.00,,---,0.00,0.00,VWS V14.00,2013-02-11 13:21:00,
2013-02-11 07:26:00,24.2,21.2,29.69,WNW,291,2.0,21.0,88,0.00,,---,0.00,0.00,VWS V14.00,2013-02-11 13:26:00,
2013-02-11 07:31:00,24.2,21.2,29.69,NW,320,7.0,13.0,88,0.00,,---,0.00,0.00,VWS V14.00,2013-02-11 13:31:00,
2013-02-11 07:36:00,24.1,21.1,29.70,NW,321,5.0,13.0,88,0.00,,---,0.00,0.00,VWS V14.00,2013-02-11 13:36:00,
2013-02-11 07:41:00,24.0,21.0,29.71,NW,321,10.0,13.0,88,0.00,,---,0.00,5.00,VWS V14.00,2013-02-11 13:41:00,
2013-02-11 07:46:00,24.0,21.0,29.71,NW,312,5.0,15.0,88,0.00,,---,0.00,5.00,VWS V14.00,2013-02-11 13:46:00,
2013-02-11 07:51:00,23.9,20.6,29.72,West,280,5.0,15.0,87,0.00,,---,0.00,5.00,VWS V14.00,2013-02-11 13:51:00,
2013-02-11 07:56:00,23.8,20.5,29.72,WNW,302,3.0,15.0,87,0.00,,---,0.00,7.00,VWS V14.00,2013-02-11 13:56:00,
2013-02-11 08:01:00,23.8,20.5,29.72,NW,317,7.0,15.0,87,0.00,,---,0.00,7.00,VWS V14.00,2013-02-11 14:01:00,
2013-02-11 08:06:00,23.9,20.3,29.73,NW,306,8.0,15.0,86,0.00,,---,0.00,9.00,VWS V14.00,2013-02-11 14:06:00,
2013-02-11 08:11:00,24.0,20.1,29.73,WNW,298,6.0,15.0,85,0.00,,---,0.00,11.00,VWS V14.00,2013-02-11 14:11:00,
2013-02-11 08:17:00,24.1,20.2,29.74,NW,312,9.0,15.0,85,0.00,,---,0.00,23.00,VWS V14.00,2013-02-11 14:17:00,
2013-02-11 08:22:00,24.3,20.2,29.74,WNW,297,6.0,16.0,84,0.00,,---,0.00,37.00,VWS V14.00,2013-02-11 14:22:00,
2013-02-11 08:27:00,24.3,19.9,29.74,NW,326,6.0,16.0,83,0.00,,---,0.00,35.00,VWS V14.00,2013-02-11 14:27:00,
2013-02-11 08:32:00,24.3,19.9,29.74,NNW,329,14.0,21.0,83,0.00,,---,0.00,32.00,VWS V14.00,2013-02-11 14:32:00,
2013-02-11 08:37:00,24.3,19.6,29.75,NW,311,13.0,21.0,82,0.00,,---,0.00,49.00,VWS V14.00,2013-02-11 14:37:00,
2013-02-11 08:42:00,24.3,19.9,29.75,NNW,329,3.0,21.0,83,0.00,,---,0.00,60.00,VWS V14.00,2013-02-11 14:42:00,
2013-02-11 08:47:00,24.3,19.9,29.75,WNW,303,5.0,21.0,83,0.00,,---,0.00,60.00,VWS V14.00,2013-02-11 14:47:00,
2013-02-11 08:52:00,24.4,20.0,29.76,NW,314,3.0,21.0,83,0.00,,---,0.00,84.00,VWS V14.00,2013-02-11 14:52:00,
2013-02-11 08:57:00,24.4,19.7,29.76,West,277,4.0,21.0,82,0.00,,---,0.00,74.00,VWS V14.00,2013-02-11 14:57:00,
2013-02-11 09:02:00,24.3,19.9,29.77,NW,306,5.0,14.0,83,0.00,,---,0.00,54.00,VWS V14.00,2013-02-11 15:02:00,
2013-02-11 09:07:00,24.4,20.0,29.77,NW,323,3.0,14.0,83,0.00,,---,0.00,49.00,VWS V14.00,2013-02-11 15:07:00,
2013-02-11 09:12:00,24.5,20.1,29.77,NNW,334,9.0,14.0,83,0.00,,---,0.00,81.00,VWS V14.00,2013-02-11 15:12:00,
2013-02-11 09:17:00,24.6,20.2,29.78,WNW,298,3.0,15.0,83,0.00,,---,0.00,83.00,VWS V14.00,2013-02-11 15:17:00,
2013-02-11 09:22:00,24.8,20.1,29.78,WNW,303,10.0,15.0,82,0.00,,---,0.00,79.00,VWS V14.00,2013-02-11 15:22:00,
2013-02-11 09:27:00,24.8,20.1,29.78,NW,305,7.0,15.0,82,0.00,,---,0.00,65.00,VWS V14.00,2013-02-11 15:27:00,
2013-02-11 09:32:00,24.9,20.2,29.79,NW,316,6.0,16.0,82,0.00,,---,0.00,81.00,VWS V14.00,2013-02-11 15:32:00,
2013-02-11 09:37:00,24.9,20.2,29.79,WNW,300,3.0,16.0,82,0.00,,---,0.00,67.00,VWS V14.00,2013-02-11 15:37:00,
2013-02-11 09:42:00,24.9,19.9,29.79,NNW,327,7.0,21.0,81,0.00,,---,0.00,70.00,VWS V14.00,2013-02-11 15:42:00,
2013-02-11 09:47:00,24.9,20.2,29.79,NW,306,5.0,21.0,82,0.00,,---,0.00,95.00,VWS V14.00,2013-02-11 15:47:00,
2013-02-11 09:53:00,25.0,20.3,29.80,NW,320,14.0,21.0,82,0.00,,---,0.00,100.00,VWS V14.00,2013-02-11 15:53:00,
2013-02-11 09:58:00,25.0,20.0,29.80,West,278,1.0,5.0,81,0.00,,---,0.00,105.00,VWS V14.00,2013-02-11 15:58:00,
2013-02-11 10:03:00,25.1,20.4,29.80,NW,317,1.0,12.0,82,0.00,,---,0.00,127.00,VWS V14.00,2013-02-11 16:03:00,
2013-02-11 10:08:00,25.2,20.2,29.81,NW,312,4.0,16.0,81,0.00,,---,0.00,114.00,VWS V14.00,2013-02-11 16:08:00,
2013-02-11 10:13:00,25.2,20.2,29.81,NW,320,7.0,16.0,81,0.00,,---,0.00,114.00,VWS V14.00,2013-02-11 16:13:00,
2013-02-11 10:18:00,25.2,20.2,29.81,WNW,299,9.0,16.0,81,0.00,,---,0.00,118.00,VWS V14.00,2013-02-11 16:18:00,
2013-02-11 10:23:00,25.2,20.2,29.82,NW,304,5.0,16.0,81,0.00,,---,0.00,120.00,VWS V14.00,2013-02-11 16:23:00,
2013-02-11 10:28:00,25.2,19.9,29.82,NW,311,5.0,9.0,80,0.00,,---,0.00,116.00,VWS V14.00,2013-02-11 16:28:00,
2013-02-11 10:33:00,25.1,19.8,29.82,NW,311,5.0,14.0,80,0.00,,---,0.00,142.00,VWS V14.00,2013-02-11 16:33:00,
2013-02-11 10:38:00,25.0,19.7,29.83,WNW,283,7.0,14.0,80,0.00,,---,0.00,127.00,VWS V14.00,2013-02-11 16:38:00,
2013-02-11 10:43:00,25.2,19.9,29.83,NW,304,9.0,15.0,80,0.00,,---,0.00,158.00,VWS V14.00,2013-02-11 16:43:00,
2013-02-11 10:48:00,25.2,19.6,29.83,WNW,301,4.0,16.0,79,0.00,,---,0.00,165.00,VWS V14.00,2013-02-11 16:48:00,
2013-02-11 10:53:00,25.2,19.6,29.83,WNW,297,9.0,17.0,79,0.00,,---,0.00,167.00,VWS V14.00,2013-02-11 16:53:00,
2013-02-11 10:58:00,25.2,19.3,29.83,NW,304,10.0,10.0,78,0.00,,---,0.00,155.00,VWS V14.00,2013-02-11 16:58:00,
2013-02-11 11:03:00,25.1,19.2,29.84,NW,323,11.0,18.0,78,0.00,,---,0.00,181.00,VWS V14.00,2013-02-11 17:03:00,
2013-02-11 11:08:00,25.1,19.5,29.84,WNW,286,11.0,24.0,79,0.00,,---,0.00,216.00,VWS V14.00,2013-02-11 17:08:00,
2013-02-11 11:13:00,25.2,19.3,29.84,NNW,329,12.0,24.0,78,0.00,,---,0.00,186.00,VWS V14.00,2013-02-11 17:13:00,
2013-02-11 11:18:00,25.2,19.3,29.85,NW,315,13.0,24.0,78,0.00,,---,0.00,243.00,VWS V14.00,2013-02-11 17:18:00,
2013-02-11 11:23:00,25.2,19.6,29.84,NNW,347,12.0,24.0,79,0.00,,---,0.00,193.00,VWS V14.00,2013-02-11 17:23:00,
2013-02-11 11:28:00,25.1,19.2,29.85,NW,313,7.0,16.0,78,0.00,,---,0.00,163.00,VWS V14.00,2013-02-11 17:28:00,
2013-02-11 11:34:00,24.9,18.7,29.85,WNW,302,7.0,18.0,77,0.00,,---,0.00,162.00,VWS V14.00,2013-02-11 17:34:00,
2013-02-11 11:39:00,25.0,19.1,29.86,NNW,335,8.0,18.0,78,0.00,,---,0.00,183.00,VWS V14.00,2013-02-11 17:39:00,
2013-02-11 11:44:00,25.2,19.0,29.85,WNW,283,2.0,20.0,77,0.00,,---,0.00,403.00,VWS V14.00,2013-02-11 17:44:00,
2013-02-11 11:49:00,25.3,19.1,29.86,NW,324,5.0,20.0,77,0.00,,---,0.00,343.00,VWS V14.00,2013-02-11 17:49:00,
2013-02-11 11:54:00,25.4,19.2,29.86,NW,311,11.0,23.0,77,0.00,,---,0.00,195.00,VWS V14.00,2013-02-11 17:54:00,
2013-02-11 11:59:00,25.1,18.6,29.86,NW,312,10.0,19.0,76,0.00,,---,0.00,211.00,VWS V14.00,2013-02-11 17:59:00,
2013-02-11 12:04:00,24.9,18.7,29.86,North,349,6.0,21.0,77,0.00,,---,0.00,499.00,VWS V14.00,2013-02-11 18:04:00,
2013-02-11 12:09:00,25.2,19.0,29.87,NW,316,14.0,21.0,77,0.00,,---,0.00,332.00,VWS V14.00,2013-02-11 18:09:00,
2013-02-11 12:14:00,25.4,19.2,29.87,WNW,300,11.0,21.0,77,0.00,,---,0.00,243.00,VWS V14.00,2013-02-11 18:14:00,
2013-02-11 12:19:00,25.3,19.1,29.88,WNW,290,1.0,21.0,77,0.00,,---,0.00,223.00,VWS V14.00,2013-02-11 18:19:00,
2013-02-11 12:24:00,25.5,19.3,29.88,WNW,297,11.0,21.0,77,0.00,,---,0.00,234.00,VWS V14.00,2013-02-11 18:24:00,
2013-02-11 12:29:00,25.2,18.7,29.88,NW,308,12.0,12.0,76,0.00,,---,0.00,135.00,VWS V14.00,2013-02-11 18:29:00,
2013-02-11 12:34:00,25.1,18.9,29.88,NW,306,7.0,15.0,77,0.00,,---,0.00,178.00,VWS V14.00,2013-02-11 18:34:00,
2013-02-11 12:39:00,25.3,19.1,29.88,NNW,329,7.0,15.0,77,0.00,,---,0.00,243.00,VWS V14.00,2013-02-11 18:39:00,
2013-02-11 12:44:00,25.4,19.2,29.88,North,350,7.0,17.0,77,0.00,,---,0.00,225.00,VWS V14.00,2013-02-11 18:44:00,
2013-02-11 12:49:00,25.6,19.7,29.89,NW,317,6.0,17.0,78,0.00,,---,0.00,223.00,VWS V14.00,2013-02-11 18:49:00,
2013-02-11 12:54:00,25.7,19.5,29.89,North,350,9.0,17.0,77,0.00,,---,0.00,230.00,VWS V14.00,2013-02-11 18:54:00,
2013-02-11 12:59:00,25.5,19.3,29.89,WNW,300,7.0,19.0,77,0.00,,---,0.00,387.00,VWS V14.00,2013-02-11 18:59:00,
2013-02-11 13:04:00,25.4,19.2,29.89,WNW,294,6.0,20.0,77,0.00,,---,0.00,276.00,VWS V14.00,2013-02-11 19:04:00,
2013-02-11 13:09:00,25.4,19.2,29.90,WNW,287,5.0,20.0,77,0.00,,---,0.00,211.00,VWS V14.00,2013-02-11 19:09:00,
2013-02-11 13:14:00,25.3,18.8,29.90,NW,304,3.0,20.0,76,0.00,,---,0.00,236.00,VWS V14.00,2013-02-11 19:14:00,
2013-02-11 13:19:00,25.3,19.1,29.90,NW,313,12.0,20.0,77,0.00,,---,0.00,294.00,VWS V14.00,2013-02-11 19:19:00,
2013-02-11 13:25:00,25.1,18.6,29.90,NW,304,7.0,21.0,76,0.00,,---,0.00,218.00,VWS V14.00,2013-02-11 19:25:00,
2013-02-11 13:30:00,24.9,18.7,29.90,WNW,302,8.0,15.0,77,0.00,,---,0.00,209.00,VWS V14.00,2013-02-11 19:30:00,
2013-02-11 13:35:00,25.0,19.1,29.90,WNW,303,7.0,18.0,78,0.00,,---,0.00,176.00,VWS V14.00,2013-02-11 19:35:00,
2013-02-11 13:40:00,25.1,19.2,29.90,NW,312,3.0,18.0,78,0.00,,---,0.00,162.00,VWS V14.00,2013-02-11 19:40:00,
2013-02-11 13:45:00,25.3,19.7,29.91,West,274,3.0,18.0,79,0.00,,---,0.00,155.00,VWS V14.00,2013-02-11 19:45:00,
2013-02-11 13:50:00,25.1,19.2,29.91,SW,219,4.0,18.0,78,0.00,,---,0.00,158.00,VWS V14.00,2013-02-11 19:50:00,
2013-02-11 13:55:00,24.9,18.7,29.91,NW,314,5.0,18.0,77,0.00,,---,0.00,165.00,VWS V14.00,2013-02-11 19:55:00,
2013-02-11 14:00:00,24.6,18.7,29.91,NW,315,7.0,11.0,78,0.00,,---,0.00,146.00,VWS V14.00,2013-02-11 20:00:00,
2013-02-11 14:05:00,24.5,18.6,29.91,NW,324,6.0,20.0,78,0.00,,---,0.00,151.00,VWS V14.00,2013-02-11 20:05:00,
2013-02-11 14:10:00,24.4,18.5,29.92,NW,315,2.0,20.0,78,0.00,,---,0.00,132.00,VWS V14.00,2013-02-11 20:10:00,
2013-02-11 14:15:00,24.5,18.9,29.92,NNW,330,10.0,20.0,79,0.00,,---,0.00,158.00,VWS V14.00,2013-02-11 20:15:00,
2013-02-11 14:20:00,24.5,18.6,29.92,NNW,329,12.0,20.0,78,0.00,,---,0.00,190.00,VWS V14.00,2013-02-11 20:20:00,
2013-02-11 14:25:00,24.6,18.7,29.92,West,279,6.0,20.0,78,0.00,,---,0.00,165.00,VWS V14.00,2013-02-11 20:25:00,
2013-02-11 14:30:00,24.5,18.6,29.92,NW,315,11.0,13.0,78,0.00,,---,0.00,151.00,VWS V14.00,2013-02-11 20:30:00,
2013-02-11 14:36:00,24.5,18.6,29.93,West,279,3.0,13.0,78,0.00,,---,0.00,123.00,VWS V14.00,2013-02-11 20:36:00,
2013-02-11 14:41:00,24.5,18.9,29.93,NW,304,2.0,13.0,79,0.00,,---,0.00,113.00,VWS V14.00,2013-02-11 20:41:00,
2013-02-11 14:46:00,24.5,18.6,29.94,SSW,205,7.0,13.0,78,0.00,,---,0.00,105.00,VWS V14.00,2013-02-11 20:46:00,
2013-02-11 14:51:00,24.4,18.5,29.93,NW,321,0.0,13.0,78,0.00,,---,0.00,104.00,VWS V14.00,2013-02-11 20:51:00,
2013-02-11 14:56:00,24.3,18.4,29.94,West,281,6.0,13.0,78,0.00,,---,0.00,107.00,VWS V14.00,2013-02-11 20:56:00,
2013-02-11 15:01:00,24.2,18.3,29.94,WSW,242,1.0,12.0,78,0.00,,---,0.00,100.00,VWS V14.00,2013-02-11 21:01:00,
2013-02-11 15:06:00,24.2,18.3,29.94,NW,317,11.0,16.0,78,0.00,,---,0.00,104.00,VWS V14.00,2013-02-11 21:06:00,
2013-02-11 15:11:00,24.0,18.1,29.95,NW,325,11.0,16.0,78,0.00,,---,0.00,109.00,VWS V14.00,2013-02-11 21:11:00,
2013-02-11 15:16:00,23.9,18.0,29.95,WNW,302,5.0,17.0,78,0.00,,---,0.00,102.00,VWS V14.00,2013-02-11 21:16:00,
2013-02-11 15:21:00,23.8,18.0,29.96,West,261,4.0,17.0,78,0.00,,---,0.00,83.00,VWS V14.00,2013-02-11 21:21:00,
2013-02-11 15:26:00,23.7,18.1,29.96,WNW,296,4.0,17.0,79,0.00,,---,0.00,107.00,VWS V14.00,2013-02-11 21:26:00,
2013-02-11 15:31:00,23.5,17.4,29.96,NW,314,10.0,19.0,77,0.00,,---,0.00,105.00,VWS V14.00,2013-02-11 21:31:00,
2013-02-11 15:36:00,23.3,17.5,29.96,NW,311,7.0,19.0,78,0.00,,---,0.00,93.00,VWS V14.00,2013-02-11 21:36:00,
2013-02-11 15:41:00,23.3,17.5,29.96,NW,307,4.0,19.0,78,0.00,,---,0.00,86.00,VWS V14.00,2013-02-11 21:41:00,
2013-02-11 15:46:00,23.3,17.8,29.97,West,264,4.0,19.0,79,0.00,,---,0.00,77.00,VWS V14.00,2013-02-11 21:46:00,
2013-02-11 15:51:00,23.3,17.8,29.97,NW,324,7.0,19.0,79,0.00,,---,0.00,70.00,VWS V14.00,2013-02-11 21:51:00,
2013-02-11 15:56:00,23.2,17.4,29.97,NW,304,3.0,19.0,78,0.00,,---,0.00,58.00,VWS V14.00,2013-02-11 21:56:00,
2013-02-11 16:01:00,23.1,17.6,29.97,West,273,3.0,10.0,79,0.00,,---,0.00,62.00,VWS V14.00,2013-02-11 22:01:00,
2013-02-11 16:06:00,22.9,17.1,29.97,WNW,299,16.0,16.0,78,0.00,,---,0.00,74.00,VWS V14.00,2013-02-11 22:06:00,
2013-02-11 16:12:00,22.7,16.9,29.98,NW,307,5.0,16.0,78,0.00,,---,0.00,62.00,VWS V14.00,2013-02-11 22:12:00,
2013-02-11 16:17:00,22.6,16.8,29.98,WNW,303,12.0,16.0,78,0.00,,---,0.00,49.00,VWS V14.00,2013-02-11 22:17:00,
2013-02-11 16:22:00,22.5,16.7,29.98,NW,312,3.0,16.0,78,0.00,,---,0.00,47.00,VWS V14.00,2013-02-11 22:22:00,
2013-02-11 16:27:00,22.6,17.1,29.98,NW,316,5.0,16.0,79,0.00,,---,0.00,44.00,VWS V14.00,2013-02-11 22:27:00,
2013-02-11 16:32:00,22.6,17.1,29.98,NW,304,2.0,10.0,79,0.00,,---,0.00,40.00,VWS V14.00,2013-02-11 22:32:00,
2013-02-11 16:37:00,22.5,17.0,29.99,North,360,3.0,12.0,79,0.00,,---,0.00,39.00,VWS V14.00,2013-02-11 22:37:00,
2013-02-11 16:42:00,22.3,16.5,29.99,NW,313,1.0,12.0,78,0.00,,---,0.00,39.00,VWS V14.00,2013-02-11 22:42:00,
2013-02-11 16:47:00,22.2,16.4,29.99,WNW,284,2.0,12.0,78,0.00,,---,0.00,30.00,VWS V14.00,2013-02-11 22:47:00,
2013-02-11 16:52:00,22.1,16.6,29.99,NW,308,3.0,12.0,79,0.00,,---,0.00,23.00,VWS V14.00,2013-02-11 22:52:00,
2013-02-11 16:57:00,21.9,16.1,29.99,WNW,292,1.0,15.0,78,0.00,,---,0.00,18.00,VWS V14.00,2013-02-11 22:57:00,
2013-02-11 17:02:00,21.7,15.9,30.00,SSW,203,0.0,10.0,78,0.00,,---,0.00,19.00,VWS V14.00,2013-02-11 23:02:00,
2013-02-11 17:07:00,21.5,15.4,30.00,NW,305,6.0,10.0,77,0.00,,---,0.00,18.00,VWS V14.00,2013-02-11 23:07:00,
2013-02-11 17:12:00,21.3,15.2,30.00,North,360,9.0,16.0,77,0.00,,---,0.00,18.00,VWS V14.00,2013-02-11 23:12:00,
2013-02-11 17:17:00,21.0,14.9,30.00,NW,304,7.0,19.0,77,0.00,,---,0.00,14.00,VWS V14.00,2013-02-11 23:17:00,
2013-02-11 17:22:00,20.8,14.4,30.00,WNW,290,7.0,19.0,76,0.00,,---,0.00,9.00,VWS V14.00,2013-02-11 23:22:00,
2013-02-11 17:27:00,20.7,14.6,30.00,NW,306,10.0,19.0,77,0.00,,---,0.00,5.00,VWS V14.00,2013-02-11 23:27:00,
2013-02-11 17:32:00,20.6,14.6,30.01,NW,319,9.0,14.0,77,0.00,,---,0.00,5.00,VWS V14.00,2013-02-11 23:32:00,
2013-02-11 17:37:00,20.5,14.1,30.01,West,279,3.0,18.0,76,0.00,,---,0.00,0.00,VWS V14.00,2013-02-11 23:37:00,
2013-02-11 17:42:00,20.4,14.4,30.01,NW,306,4.0,18.0,77,0.00,,---,0.00,0.00,VWS V14.00,2013-02-11 23:42:00,
2013-02-11 17:47:00,20.3,14.0,30.01,WNW,301,4.0,18.0,76,0.00,,---,0.00,0.00,VWS V14.00,2013-02-11 23:47:00,
2013-02-11 17:52:00,20.3,14.0,30.02,NW,319,5.0,18.0,76,0.00,,---,0.00,0.00,VWS V14.00,2013-02-11 23:52:00,
2013-02-11 17:57:00,20.2,14.2,30.02,West,279,1.0,18.0,77,0.00,,---,0.00,0.00,VWS V14.00,2013-02-11 23:57:00,
2013-02-11 18:02:00,20.1,13.8,30.02,SW,219,1.0,8.0,76,0.00,,---,0.00,0.00,VWS V14.00,2013-02-12 00:02:00,
2013-02-11 18:07:00,20.0,13.7,30.02,WNW,303,0.0,8.0,76,0.00,,---,0.00,0.00,VWS V14.00,2013-02-12 00:07:00,
2013-02-11 18:12:00,20.0,14.0,30.02,WNW,300,0.0,8.0,77,0.00,,---,0.00,0.00,VWS V14.00,2013-02-12 00:12:00,
2013-02-11 18:17:00,19.9,13.9,30.02,NW,307,3.0,8.0,77,0.00,,---,0.00,0.00,VWS V14.00,2013-02-12 00:17:00,
2013-02-11 18:23:00,19.8,13.8,30.02,NW,304,0.0,12.0,77,0.00,,---,0.00,0.00,VWS V14.00,2013-02-12 00:23:00,
2013-02-11 18:28:00,19.7,13.7,30.02,NW,306,2.0,5.0,77,0.00,,---,0.00,0.00,VWS V14.00,2013-02-12 00:28:00,
2013-02-11 18:33:00,19.7,13.7,30.03,NW,315,7.0,7.0,77,0.00,,---,0.00,0.00,VWS V14.00,2013-02-12 00:33:00,
2013-02-11 18:38:00,19.7,13.7,30.02,NW,315,2.0,7.0,77,0.00,,---,0.00,0.00,VWS V14.00,2013-02-12 00:38:00,
2013-02-11 18:43:00,19.7,14.0,30.03,NW,306,4.0,7.0,78,0.00,,---,0.00,0.00,VWS V14.00,2013-02-12 00:43:00,
2013-02-11 18:48:00,19.7,13.7,30.03,NW,312,2.0,9.0,77,0.00,,---,0.00,0.00,VWS V14.00,2013-02-12 00:48:00,
2013-02-11 18:53:00,19.6,13.6,30.03,WNW,295,2.0,9.0,77,0.00,,---,0.00,0.00,VWS V14.00,2013-02-12 00:53:00,
2013-02-11 18:58:00,19.5,13.8,30.03,NW,306,2.0,3.0,78,0.00,,---,0.00,0.00,VWS V14.00,2013-02-12 00:58:00,
2013-02-11 19:03:00,19.4,13.7,30.03,SSE,152,0.0,10.0,78,0.00,,---,0.00,0.00,VWS V14.00,2013-02-12 01:03:00,
2013-02-11 19:08:00,19.4,13.7,30.03,NW,315,9.0,14.0,78,0.00,,---,0.00,0.00,VWS V14.00,2013-02-12 01:08:00,
2013-02-11 19:13:00,19.4,13.7,30.04,NW,316,3.0,14.0,78,0.00,,---,0.00,0.00,VWS V14.00,2013-02-12 01:13:00,
2013-02-11 19:18:00,19.4,13.7,30.04,NW,315,3.0,14.0,78,0.00,,---,0.00,0.00,VWS V14.00,2013-02-12 01:18:00,
2013-02-11 19:23:00,19.4,13.7,30.04,NW,321,5.0,14.0,78,0.00,,---,0.00,0.00,VWS V14.00,2013-02-12 01:23:00,
2013-02-11 19:28:00,19.3,13.9,30.04,NW,306,0.0,1.0,79,0.00,,---,0.00,0.00,VWS V14.00,2013-02-12 01:28:00,
2013-02-11 19:33:00,19.3,13.9,30.04,WNW,297,0.0,6.0,79,0.00,,---,0.00,0.00,VWS V14.00,2013-02-12 01:33:00,
2013-02-11 19:38:00,19.3,13.9,30.04,WNW,287,0.0,6.0,79,0.00,,---,0.00,0.00,VWS V14.00,2013-02-12 01:38:00,
2013-02-11 19:44:00,19.3,13.9,30.04,NW,308,0.0,6.0,79,0.00,,---,0.00,0.00,VWS V14.00,2013-02-12 01:44:00,
2013-02-11 19:49:00,19.3,13.9,30.04,NW,305,1.0,6.0,79,0.00,,---,0.00,0.00,VWS V14.00,2013-02-12 01:49:00,
2013-02-11 19:54:00,19.3,13.9,30.04,WNW,298,2.0,6.0,79,0.00,,---,0.00,0.00,VWS V14.00,2013-02-12 01:54:00,
2013-02-11 19:59:00,19.3,14.1,30.04,WNW,288,0.0,4.0,80,0.00,,---,0.00,0.00,VWS V14.00,2013-02-12 01:59:00,
2013-02-11 20:04:00,19.3,14.1,30.04,WSW,242,0.0,4.0,80,0.00,,---,0.00,0.00,VWS V14.00,2013-02-12 02:04:00,
2013-02-11 20:09:00,19.3,14.1,30.04,West,267,0.0,6.0,80,0.00,,---,0.00,0.00,VWS V14.00,2013-02-12 02:09:00,
2013-02-11 20:14:00,19.4,14.2,30.05,WNW,291,0.0,6.0,80,0.00,,---,0.00,0.00,VWS V14.00,2013-02-12 02:14:00,
2013-02-11 20:19:00,19.4,14.2,30.05,West,273,0.0,6.0,80,0.00,,---,0.00,0.00,VWS V14.00,2013-02-12 02:19:00,
2013-02-11 20:24:00,19.4,14.2,30.04,NNW,329,3.0,6.0,80,0.00,,---,0.00,0.00,VWS V14.00,2013-02-12 02:24:00,
2013-02-11 20:29:00,19.5,14.4,30.04,WNW,298,0.0,3.0,80,0.00,,---,0.00,0.00,VWS V14.00,2013-02-12 02:29:00,
2013-02-11 20:34:00,19.5,14.4,30.04,SW,217,0.0,4.0,80,0.00,,---,0.00,0.00,VWS V14.00,2013-02-12 02:34:00,
2013-02-11 20:39:00,19.6,14.7,30.05,WNW,292,2.0,4.0,81,0.00,,---,0.00,0.00,VWS V14.00,2013-02-12 02:39:00,
2013-02-11 20:44:00,19.6,14.7,30.05,SW,220,1.0,4.0,81,0.00,,---,0.00,0.00,VWS V14.00,2013-02-12 02:44:00,
2013-02-11 20:49:00,19.7,14.8,30.05,WSW,242,0.0,4.0,81,0.00,,---,0.00,0.00,VWS V14.00,2013-02-12 02:49:00,
2013-02-11 20:54:00,19.7,14.8,30.05,NW,321,2.0,4.0,81,0.00,,---,0.00,0.00,VWS V14.00,2013-02-12 02:54:00,
2013-02-11 21:00:00,19.7,14.8,30.05,NNW,338,0.0,2.0,81,0.00,,---,0.00,0.00,VWS V14.00,2013-02-12 03:00:00,
2013-02-11 21:05:00,19.7,14.8,30.06,North,360,1.0,2.0,81,0.00,,---,0.00,0.00,VWS V14.00,2013-02-12 03:05:00,
2013-02-11 21:10:00,19.7,14.8,30.06,WNW,293,0.0,6.0,81,0.00,,---,0.00,0.00,VWS V14.00,2013-02-12 03:10:00,
2013-02-11 21:15:00,19.7,14.8,30.06,NNW,333,4.0,6.0,81,0.00,,---,0.00,0.00,VWS V14.00,2013-02-12 03:15:00,
2013-02-11 21:20:00,19.8,14.9,30.07,NW,309,2.0,12.0,81,0.00,,---,0.00,0.00,VWS V14.00,2013-02-12 03:20:00,
2013-02-11 21:25:00,19.8,14.9,30.06,NW,318,4.0,12.0,81,0.00,,---,0.00,0.00,VWS V14.00,2013-02-12 03:25:00,
2013-02-11 21:30:00,19.8,14.6,30.07,NW,322,3.0,10.0,80,0.00,,---,0.00,0.00,VWS V14.00,2013-02-12 03:30:00,
2013-02-11 21:35:00,19.8,14.6,30.07,NW,304,1.0,10.0,80,0.00,,---,0.00,0.00,VWS V14.00,2013-02-12 03:35:00,
2013-02-11 21:40:00,19.7,14.8,30.07,NNW,332,1.0,10.0,81,0.00,,---,0.00,0.00,VWS V14.00,2013-02-12 03:40:00,
2013-02-11 21:45:00,19.7,14.8,30.07,WNW,294,3.0,10.0,81,0.00,,---,0.00,0.00,VWS V14.00,2013-02-12 03:45:00,
2013-02-11 21:50:00,19.5,14.6,30.07,West,279,2.0,10.0,81,0.00,,---,0.00,0.00,VWS V14.00,2013-02-12 03:50:00,
2013-02-11 21:56:00,19.2,14.3,30.07,NW,308,0.0,10.0,81,0.00,,---,0.00,0.00,VWS V14.00,2013-02-12 03:56:00,
2013-02-11 22:01:00,18.9,14.0,30.08,WSW,258,0.0,2.0,81,0.00,,---,0.00,0.00,VWS V14.00,2013-02-12 04:01:00,
2013-02-11 22:06:00,18.5,13.6,30.08,WNW,294,0.0,2.0,81,0.00,,---,0.00,0.00,VWS V14.00,2013-02-12 04:06:00,
2013-02-11 22:11:00,18.4,13.6,30.08,West,267,1.0,2.0,81,0.00,,---,0.00,0.00,VWS V14.00,2013-02-12 04:11:00,
2013-02-11 22:16:00,17.8,13.0,30.08,West,279,0.0,2.0,81,0.00,,---,0.00,0.00,VWS V14.00,2013-02-12 04:16:00,
2013-02-11 22:21:00,17.5,12.9,30.08,WNW,294,0.0,2.0,82,0.00,,---,0.00,0.00,VWS V14.00,2013-02-12 04:21:00,
2013-02-11 22:26:00,17.2,12.7,30.08,WNW,289,0.0,4.0,82,0.00,,---,0.00,0.00,VWS V14.00,2013-02-12 04:26:00,
2013-02-11 22:31:00,16.9,12.4,30.08,WNW,289,0.0,0.0,82,0.00,,---,0.00,0.00,VWS V14.00,2013-02-12 04:31:00,
2013-02-11 22:36:00,16.6,12.1,30.08,WNW,288,0.0,1.0,82,0.00,,---,0.00,0.00,VWS V14.00,2013-02-12 04:36:00,
2013-02-11 22:42:00,16.3,12.1,30.08,WNW,282,0.0,1.0,83,0.00,,---,0.00,0.00,VWS V14.00,2013-02-12 04:42:00,
2013-02-11 22:47:00,16.0,11.8,30.08,West,274,0.0,3.0,83,0.00,,---,0.00,0.00,VWS V14.00,2013-02-12 04:47:00,
2013-02-11 22:52:00,15.8,13.9,30.08,West,274,0.0,3.0,92,0.00,,---,0.00,0.00,VWS V14.00,2013-02-12 04:52:00,
2013-02-11 22:57:00,15.5,11.5,30.08,West,272,0.0,3.0,84,0.00,,---,0.00,0.00,VWS V14.00,2013-02-12 04:57:00,
2013-02-11 23:00:00,15.4,11.4,30.08,West,280,0.0,2.0,84,0.00,,---,0.00,0.00,VWS V14.00,2013-02-12 05:00:00,
2013-02-11 23:05:00,15.2,11.2,30.08,West,280,0.0,2.0,84,0.00,,---,0.00,0.00,VWS V14.00,2013-02-12 05:05:00,
2013-02-11 23:10:00,15.0,11.3,30.08,West,280,0.0,2.0,85,0.00,,---,0.00,0.00,VWS V14.00,2013-02-12 05:10:00,
2013-02-11 23:15:00,14.9,11.2,30.08,West,280,0.0,2.0,85,0.00,,---,0.00,0.00,VWS V14.00,2013-02-12 05:15:00,
2013-02-11 23:20:00,14.7,11.0,30.08,NW,310,1.0,3.0,85,0.00,,---,0.00,0.00,VWS V14.00,2013-02-12 05:20:00,
2013-02-11 23:25:00,14.6,10.9,30.08,NW,315,0.0,3.0,85,0.00,,---,0.00,0.00,VWS V14.00,2013-02-12 05:25:00,
2013-02-11 23:30:00,14.5,10.8,30.09,NW,308,0.0,2.0,85,0.00,,---,0.00,0.00,VWS V14.00,2013-02-12 05:30:00,
2013-02-11 23:36:00,14.3,10.6,30.09,NW,309,0.0,2.0,85,0.00,,---,0.00,0.00,VWS V14.00,2013-02-12 05:36:00,
2013-02-11 23:41:00,14.3,10.6,30.08,NW,309,0.0,2.0,85,0.00,,---,0.00,0.00,VWS V14.00,2013-02-12 05:41:00,
2013-02-11 23:46:00,14.2,10.5,30.08,NW,309,0.0,2.0,85,0.00,,---,0.00,0.00,VWS V14.00,2013-02-12 05:46:00,
2013-02-11 23:51:00,14.2,10.5,30.08,WNW,303,0.0,2.0,85,0.00,,---,0.00,0.00,VWS V14.00,2013-02-12 05:51:00,
2013-02-11 23:56:00,14.1,10.4,30.08,WNW,299,0.0,2.0,85,0.00,,---,0.00,0.00,VWS V14.00,2013-02-12 05:56:00,